| time (UTC) | temp F | wind direction | speed MPH | gust MPH | rain 1hr in | rain 24hr in | rain mn in | humidity % | barometer mb |
| 20260509092609 | 50 | 96 | 0.0 | 0.0 | 0.00 | 0.08 | 0.00 | 92 | 1007.2 |
| 20260509091357 | 51 | 96 | 0.0 | 0.0 | 0.00 | 0.08 | 0.00 | 92 | 1007.3 |
| 20260509090135 | 51 | 96 | 0.0 | 0.0 | 0.00 | 0.08 | 0.00 | 92 | 1007.1 |
| 20260509084936 | 51 | 96 | 0.0 | 0.0 | 0.00 | 0.08 | 0.00 | 92 | 1007.1 |
| 20260509083659 | 51 | 96 | 0.0 | 1.0 | 0.00 | 0.08 | 0.00 | 92 | 1007.1 |
| 20260509082455 | 51 | 97 | 0.0 | 1.0 | 0.00 | 0.08 | 0.00 | 92 | 1007.0 |
| 20260509081259 | 52 | 96 | 0.0 | 2.0 | 0.00 | 0.08 | 0.00 | 92 | 1007.0 |
| 20260509080108 | 52 | 158 | 0.0 | 6.0 | 0.00 | 0.08 | 0.00 | 92 | 1007.0 |
| 20260509074933 | 52 | 150 | 0.0 | 1.0 | 0.00 | 0.08 | 0.00 | 92 | 1007.3 |
| 20260509073738 | 52 | 90 | 0.0 | 2.0 | 0.00 | 0.08 | 0.00 | 92 | 1007.3 |
| 20260509072514 | 52 | 137 | 0.0 | 4.0 | 0.00 | 0.08 | 0.00 | 92 | 1007.6 |
| 20260509071334 | 53 | 148 | 0.0 | 4.0 | 0.00 | 0.08 | 0.00 | 92 | 1007.9 |
| 20260509070154 | 52 | 271 | 0.0 | 0.0 | 0.00 | 0.08 | 0.00 | 92 | 1007.9 |
| 20260509064944 | 52 | 157 | 0.0 | 2.0 | 0.00 | 0.08 | 0.00 | 92 | 1008.0 |
| 20260509063748 | 52 | 138 | 0.0 | 6.0 | 0.00 | 0.08 | 0.00 | 92 | 1008.1 |
| 20260509062512 | 52 | 155 | 0.0 | 3.0 | 0.00 | 0.08 | 0.00 | 92 | 1008.1 |
| 20260509061239 | 53 | 119 | 0.0 | 6.0 | 0.00 | 0.08 | 0.00 | 92 | 1008.3 |
| 20260509060040 | 53 | 306 | 0.0 | 0.0 | 0.00 | 0.08 | 0.00 | 92 | 1008.3 |
| 20260509054827 | 52 | 205 | 0.0 | 3.0 | 0.00 | 0.08 | 0.00 | 92 | 1008.4 |
| 20260509053643 | 51 | 119 | 0.0 | 0.0 | 0.00 | 0.08 | 0.00 | 91 | 1008.4 |
| 20260509052421 | 52 | 121 | 0.0 | 2.0 | 0.00 | 0.08 | 0.00 | 91 | 1008.4 |
| 20260509051212 | 52 | 311 | 0.0 | 1.0 | 0.00 | 0.08 | 0.00 | 91 | 1008.4 |
| 20260509045947 | 52 | 311 | 0.0 | 0.0 | 0.00 | 0.08 | 0.00 | 91 | 1008.4 |
| 20260509044732 | 51 | 213 | 0.0 | 0.0 | 0.00 | 0.08 | 0.00 | 91 | 1008.3 |
| 20260509043558 | 51 | 212 | 0.0 | 1.0 | 0.00 | 0.08 | 0.00 | 91 | 1008.4 |
| 20260509042318 | 51 | 212 | 0.0 | 0.0 | 0.00 | 0.08 | 0.00 | 91 | 1008.4 |
| 20260509041123 | 51 | 229 | 0.0 | 0.0 | 0.00 | 0.08 | 0.00 | 91 | 1008.5 |
| 20260509035847 | 51 | 229 | 0.0 | 0.0 | 0.00 | 0.08 | 0.08 | 91 | 1008.6 |
| 20260509034658 | 52 | 229 | 0.0 | 1.0 | 0.00 | 0.08 | 0.08 | 91 | 1008.8 |
| 20260509033430 | 52 | 229 | 0.0 | 0.0 | 0.00 | 0.08 | 0.08 | 91 | 1008.8 |
| 20260509032208 | 52 | 229 | 0.0 | 0.0 | 0.00 | 0.08 | 0.08 | 90 | 1009.0 |
| 20260509030956 | 52 | 229 | 0.0 | 0.0 | 0.00 | 0.08 | 0.08 | 90 | 1009.2 |
| 20260509025754 | 53 | 229 | 0.0 | 0.0 | 0.00 | 0.08 | 0.08 | 90 | 1008.9 |
| 20260509024551 | 53 | 229 | 0.0 | 0.0 | 0.00 | 0.08 | 0.08 | 90 | 1009.0 |
| 20260509023348 | 53 | 229 | 0.0 | 0.0 | 0.00 | 0.09 | 0.08 | 90 | 1009.0 |
| 20260509022126 | 53 | 229 | 0.0 | 2.0 | 0.00 | 0.11 | 0.08 | 89 | 1009.0 |
| 20260509020918 | 54 | 238 | 0.0 | 0.0 | 0.00 | 0.11 | 0.08 | 89 | 1009.1 |
| 20260509015744 | 54 | 136 | 0.0 | 4.0 | 0.00 | 0.11 | 0.08 | 89 | 1009.0 |
| 20260509013404 | 54 | 134 | 0.0 | 3.0 | 0.00 | 0.11 | 0.08 | 89 | 1008.9 |
| 20260509012220 | 54 | 136 | 0.0 | 6.0 | 0.00 | 0.11 | 0.08 | 89 | 1008.8 |
| 20260509010940 | 54 | 113 | 0.0 | 7.0 | 0.00 | 0.11 | 0.08 | 88 | 1008.7 |
| 20260509005742 | 54 | 225 | 0.0 | 4.0 | 0.00 | 0.11 | 0.08 | 88 | 1008.6 |
| 20260509004604 | 55 | 171 | 0.0 | 4.0 | 0.00 | 0.11 | 0.08 | 88 | 1008.5 |
| 20260509003432 | 55 | 164 | 0.0 | 2.0 | 0.00 | 0.11 | 0.08 | 88 | 1008.6 |
| 20260509002239 | 56 | 88 | 0.0 | 4.0 | 0.00 | 0.11 | 0.08 | 87 | 1008.7 |
| 20260509001056 | 56 | 214 | 0.0 | 2.0 | 0.00 | 0.11 | 0.08 | 87 | 1008.8 |
| 20260508235831 | 56 | 84 | 0.0 | 1.0 | 0.00 | 0.11 | 0.08 | 86 | 1008.8 |
| 20260508234629 | 57 | 114 | 0.0 | 6.0 | 0.00 | 0.11 | 0.08 | 85 | 1008.8 |
| 20260508233425 | 57 | 130 | 0.0 | 3.0 | 0.00 | 0.11 | 0.08 | 85 | 1008.8 |
| 20260508232206 | 57 | 182 | 0.0 | 4.0 | 0.00 | 0.11 | 0.08 | 84 | 1008.8 |
| 20260508230952 | 57 | 135 | 0.0 | 8.0 | 0.00 | 0.11 | 0.08 | 85 | 1008.9 |
| 20260508225715 | 57 | 143 | 0.0 | 7.0 | 0.00 | 0.11 | 0.08 | 85 | 1008.9 |
| 20260508224439 | 57 | 170 | 0.0 | 2.0 | 0.00 | 0.11 | 0.08 | 86 | 1009.1 |
| 20260508223224 | 57 | 183 | 0.0 | 3.0 | 0.00 | 0.11 | 0.08 | 86 | 1009.1 |
| 20260508222010 | 57 | 301 | 0.0 | 4.0 | 0.00 | 0.11 | 0.08 | 86 | 1009.1 |
| 20260508220828 | 57 | 148 | 1.0 | 0.0 | 0.00 | 0.11 | 0.08 | 86 | 1009.0 |
| 20260508215618 | 57 | 257 | 0.0 | 8.0 | 0.00 | 0.11 | 0.08 | 86 | 1009.1 |
| 20260508214347 | 57 | 115 | 0.0 | 8.0 | 0.00 | 0.11 | 0.08 | 86 | 1009.0 |
| 20260508213217 | 57 | 86 | 0.0 | 8.0 | 0.00 | 0.11 | 0.08 | 85 | 1009.2 |
| 20260508211937 | 57 | 145 | 1.0 | 6.0 | 0.00 | 0.11 | 0.08 | 84 | 1009.1 |
| 20260508210732 | 57 | 71 | 0.0 | 8.0 | 0.00 | 0.11 | 0.08 | 85 | 1009.4 |
| 20260508205456 | 57 | 226 | 0.0 | 9.0 | 0.00 | 0.11 | 0.08 | 86 | 1009.4 |
| 20260508204239 | 56 | 114 | 0.0 | 9.0 | 0.00 | 0.11 | 0.08 | 86 | 1009.5 |
| 20260508203038 | 56 | 208 | 0.0 | 4.0 | 0.00 | 0.11 | 0.08 | 86 | 1009.8 |
| 20260508201810 | 56 | 222 | 1.0 | 11.0 | 0.00 | 0.10 | 0.06 | 84 | 1010.1 |
| 20260508200602 | 56 | 258 | 0.0 | 8.0 | 0.05 | 0.10 | 0.06 | 82 | 1010.2 |
| 20260508195403 | 58 | 244 | 3.0 | 18.0 | 0.00 | 0.09 | 0.06 | 79 | 1010.2 |
| 20260508194153 | 59 | 62 | 3.0 | 18.0 | 0.00 | 0.08 | 0.05 | 78 | 1010.2 |
| 20260508192938 | 60 | 80 | 0.0 | 7.0 | 0.00 | 0.08 | 0.05 | 78 | 1010.1 |
| 20260508191712 | 61 | 268 | 0.0 | 7.0 | 0.00 | 0.08 | 0.05 | 73 | 1010.2 |
| 20260508190517 | 61 | 103 | 0.0 | 2.0 | 0.00 | 0.08 | 0.05 | 73 | 1010.2 |
| 20260508185345 | 61 | 248 | 0.0 | 11.0 | 0.00 | 0.08 | 0.05 | 70 | 1010.2 |
| 20260508184156 | 62 | 155 | 1.0 | 11.0 | 0.00 | 0.08 | 0.05 | 70 | 1010.4 |
| 20260508182941 | 62 | 37 | 0.0 | 7.0 | 0.00 | 0.08 | 0.05 | 68 | 1010.6 |
| 20260508181750 | 62 | 111 | 0.0 | 4.0 | 0.00 | 0.08 | 0.05 | 66 | 1010.6 |
| 20260508180555 | 60 | 302 | 0.0 | 3.0 | 0.00 | 0.08 | 0.05 | 70 | 1010.9 |
| 20260508175343 | 60 | 114 | 0.0 | 3.0 | 0.00 | 0.08 | 0.05 | 71 | 1011.2 |
| 20260508174213 | 59 | 107 | 0.0 | 4.0 | 0.00 | 0.08 | 0.05 | 73 | 1011.4 |
| 20260508173032 | 58 | 25 | 0.0 | 3.0 | 0.00 | 0.08 | 0.05 | 75 | 1011.5 |
| 20260508171801 | 57 | 229 | 0.0 | 0.0 | 0.00 | 0.08 | 0.05 | 80 | 1011.8 |
| 20260508170526 | 56 | 230 | 0.0 | 2.0 | 0.00 | 0.08 | 0.05 | 79 | 1012.1 |
| 20260508165340 | 55 | 238 | 0.0 | 0.0 | 0.00 | 0.08 | 0.05 | 80 | 1012.3 |
| 20260508164210 | 55 | 193 | 0.0 | 0.0 | 0.00 | 0.08 | 0.05 | 83 | 1012.5 |
| 20260508163008 | 54 | 193 | 0.0 | 0.0 | 0.00 | 0.08 | 0.05 | 83 | 1012.9 |
| 20260508161828 | 54 | 193 | 0.0 | 0.0 | 0.00 | 0.08 | 0.05 | 84 | 1012.8 |
| 20260508160625 | 54 | 78 | 0.0 | 6.0 | 0.00 | 0.08 | 0.05 | 83 | 1012.7 |
| 20260508155429 | 56 | 136 | 1.0 | 4.0 | 0.00 | 0.08 | 0.05 | 81 | 1012.5 |
| 20260508154159 | 54 | 138 | 1.0 | 6.0 | 0.00 | 0.08 | 0.05 | 84 | 1012.7 |
| 20260508152949 | 53 | 200 | 0.0 | 4.0 | 0.00 | 0.08 | 0.05 | 86 | 1012.8 |
| 20260508151759 | 52 | 98 | 1.0 | 4.0 | 0.00 | 0.08 | 0.05 | 87 | 1012.8 |
| 20260508150546 | 52 | 201 | 0.0 | 4.0 | 0.00 | 0.08 | 0.05 | 88 | 1012.9 |
| 20260508145328 | 50 | 142 | 0.0 | 4.0 | 0.00 | 0.08 | 0.05 | 89 | 1012.9 |
| 20260508144123 | 50 | 81 | 0.0 | 3.0 | 0.00 | 0.08 | 0.05 | 89 | 1013.3 |
| 20260508142911 | 50 | 94 | 0.0 | 3.0 | 0.04 | 0.08 | 0.05 | 88 | 1013.4 |
| 20260508141723 | 50 | 137 | 0.0 | 3.0 | 0.06 | 0.08 | 0.05 | 88 | 1013.3 |
| 20260508140530 | 50 | 315 | 0.0 | 7.0 | 0.00 | 0.06 | 0.03 | 88 | 1013.7 |
| 20260508135346 | 51 | 140 | 0.0 | 7.0 | 0.00 | 0.05 | 0.02 | 88 | 1013.7 |
| 20260508134132 | 51 | 0 | 0.0 | 1.0 | 0.00 | 0.05 | 0.02 | 88 | 1013.5 |
| 20260508132856 | 51 | 0 | 0.0 | 0.0 | 0.00 | 0.05 | 0.02 | 87 | 1013.3 |
| 20260508131632 | 51 | 268 | 0.0 | 6.0 | 0.00 | 0.04 | 0.01 | 86 | 1013.2 |
| 20260508130453 | 51 | 232 | 0.0 | 3.0 | 0.00 | 0.04 | 0.01 | 85 | 1013.1 |
| 20260508125310 | 51 | 84 | 0.0 | 1.0 | 0.00 | 0.04 | 0.01 | 85 | 1013.3 |
| 20260508124117 | 51 | 245 | 0.0 | 6.0 | 0.00 | 0.04 | 0.01 | 85 | 1013.3 |
| 20260508122900 | 51 | 70 | 0.0 | 3.0 | 0.00 | 0.04 | 0.01 | 87 | 1013.3 |
| 20260508121645 | 51 | 198 | 0.0 | 2.0 | 0.00 | 0.04 | 0.01 | 87 | 1013.2 |
| 20260508120455 | 50 | 219 | 0.0 | 3.0 | 0.00 | 0.04 | 0.01 | 87 | 1013.1 |
| 20260508115311 | 50 | 238 | 0.0 | 2.0 | 0.00 | 0.04 | 0.01 | 89 | 1013.2 |
| 20260508114106 | 49 | 120 | 0.0 | 2.0 | 0.00 | 0.04 | 0.01 | 89 | 1012.9 |
| 20260508112930 | 48 | 130 | 0.0 | 1.0 | 0.00 | 0.04 | 0.01 | 90 | 1012.9 |
| 20260508111703 | 48 | 227 | 0.0 | 3.0 | 0.00 | 0.04 | 0.01 | 90 | 1012.7 |
| 20260508110441 | 47 | 146 | 0.0 | 2.0 | 0.00 | 0.04 | 0.01 | 90 | 1012.7 |
| 20260508105309 | 47 | 143 | 0.0 | 7.0 | 0.00 | 0.04 | 0.01 | 91 | 1012.7 |
| 20260508104102 | 47 | 69 | 0.0 | 7.0 | 0.00 | 0.04 | 0.01 | 91 | 1012.7 |
| 20260508102905 | 46 | 100 | 0.0 | 1.0 | 0.00 | 0.04 | 0.01 | 91 | 1012.7 |
| 20260508101710 | 45 | 168 | 0.0 | 2.0 | 0.00 | 0.04 | 0.01 | 91 | 1012.6 |
| 20260508100430 | 45 | 168 | 0.0 | 2.0 | 0.00 | 0.03 | 0.00 | 91 | 1012.7 |
| 20260508095150 | 45 | 200 | 0.0 | 0.0 | 0.00 | 0.03 | 0.00 | 91 | 1012.6 |
| 20260508093918 | 44 | 200 | 0.0 | 0.0 | 0.00 | 0.03 | 0.00 | 90 | 1012.8 |